Stations météo

réclame
Mon MeteoGroup
Manston, Grande-Bretagne (3797): Température de l'air & dewpoint: 18.11.2020 14:00:00 - 24.11.2020 14:00:00 (GMT)Manston, Grande-Bretagne (3797): Température de l'air -20cm & Température de l'air -100cm: 18.11.2020 14:00:00 - 24.11.2020 14:00:00 (GMT)Manston, Grande-Bretagne (3797): Vitesse du vent & gusts: 18.11.2020 14:00:00 - 24.11.2020 14:00:00 (GMT)Manston, Grande-Bretagne (3797): Direction du vent: 18.11.2020 14:00:00 - 24.11.2020 14:00:00 (GMT)Manston, Grande-Bretagne (3797): reduced air pressure: 18.11.2020 14:00:00 - 24.11.2020 14:00:00 (GMT)Manston, Grande-Bretagne (3797): visibility: 18.11.2020 14:00:00 - 24.11.2020 14:00:00 (GMT)Manston, Grande-Bretagne (3797): Ensoleillement: 18.11.2020 14:00:00 - 24.11.2020 14:00:00 (GMT)Manston, Grande-Bretagne (3797): Quantités de précipitations: 18.11.2020 14:00:00 - 24.11.2020 14:00:00 (GMT)
Date & Time tt [°C] td [°C] tt -20cm [°C] tt -100cm [°C] ff [km/h] ff [knt] fx [km/h] fx [knt] dd ppp [hPa] vv [km] sd [min] rr [mm]
24.11.2020 14:00:00 10,1 7,7 - - 26 14 - - S 1017,2 25 0 0,0
24.11.2020 13:00:00 10,2 7,6 - - 28 15 - - S 1018,0 30 0 0,0
24.11.2020 12:00:00 10,4 7,7 - - 28 15 - - SSW 1018,8 40 0 0,0
24.11.2020 11:00:00 10,8 8,3 - - 26 14 - - SSW 1019,4 40 6 0,0
24.11.2020 10:00:00 10,1 7,9 - - 22 12 - - S 1019,9 45 6 0,0
24.11.2020 09:00:00 9,8 7,7 9,0 11,4 22 12 - - S 1020,5 50 0 0,0
24.11.2020 08:00:00 8,9 7,7 - - 13 7 - - S 1020,7 45 0 0,0
24.11.2020 07:00:00 9,4 8,7 - - 15 8 - - SSW 1020,9 30 0 0,0
24.11.2020 06:00:00 8,7 8,5 - - 13 7 - - SW 1021,3 30 0 0,0
24.11.2020 05:00:00 6,9 6,5 - - 11 6 - - S 1021,7 28 0 0,0
24.11.2020 04:00:00 6,4 5,9 - - 11 6 - - SE 1022,1 50 0 0,0
24.11.2020 03:00:00 8,0 7,4 - - 9 5 - - SW 1022,7 45 0 0,0
24.11.2020 02:00:00 7,8 7,0 - - 13 7 - - SW 1023,4 40 0 0,0
24.11.2020 01:00:00 8,6 7,6 - - 13 7 - - SSW 1023,9 50 0 0,0
24.11.2020 00:00:00 8,3 7,5 - - 11 6 - - S 1024,5 50 - 0,0
23.11.2020 23:00:00 7,6 6,8 - - 11 6 - - S 1024,7 35 0 0,0
23.11.2020 22:00:00 7,4 6,5 - - 13 7 - - S 1025,2 40 0 0,0
23.11.2020 21:00:00 7,0 5,7 - - 11 6 - - SSE 1025,7 50 0 0,0
23.11.2020 20:00:00 7,3 6,0 - - 11 6 - - S 1026,2 40 0 0,0
23.11.2020 19:00:00 7,0 5,2 - - 11 6 - - S 1026,6 30 0 0,0
23.11.2020 18:00:00 7,3 4,7 - - 9 5 - - S 1026,5 40 0 0,0
23.11.2020 17:00:00 7,0 3,7 - - 9 5 - - S 1026,7 50 0 0,0
23.11.2020 16:00:00 8,1 3,7 - - 8 4 - - SSE 1026,8 50 0 0,0
23.11.2020 15:00:00 9,1 2,9 - - 15 8 - - SW 1027,1 45 30 0,0
23.11.2020 14:00:00 10,1 4,3 - - 11 6 - - WSW 1027,5 45 48 0,0
23.11.2020 13:00:00 10,2 5,9 - - 9 5 - - SSW 1027,9 23 36 0,0
23.11.2020 12:00:00 9,6 5,3 - - 11 6 - - SSE 1027,9 23 60 0,0
23.11.2020 11:00:00 7,9 5,4 - - 4 2 - - SSW 1029,1 18 30 0,0
23.11.2020 10:00:00 5,8 4,8 - - 5 3 - - WSW 1029,1 20 6 0,0
23.11.2020 09:00:00 5,0 4,5 9,5 11,5 9 5 - - WSW 1028,8 17 0 0,0
23.11.2020 08:00:00 3,7 3,2 - - 11 6 - - SW 1028,5 17 0 0,0
23.11.2020 07:00:00 2,9 2,3 - - 8 4 - - WSW 1028,1 14 0 0,0
23.11.2020 06:00:00 3,8 3,3 - - 9 5 - - WSW 1028,0 18 0 0,0
23.11.2020 05:00:00 2,8 2,2 - - 11 6 - - WSW 1028,0 15 0 0,0
23.11.2020 04:00:00 3,2 2,7 - - 11 6 - - WSW 1027,9 13 0 0,0
23.11.2020 03:00:00 3,8 2,8 - - 9 5 - - W 1027,8 18 0 0,2
23.11.2020 02:00:00 3,9 3,2 - - 13 7 - - WSW 1027,7 18 0 0,0
23.11.2020 01:00:00 4,5 3,3 - - 9 5 - - W 1027,9 16 0 0,0
23.11.2020 00:00:00 4,6 3,7 - - 11 6 - - W 1027,9 18 - 0,0
22.11.2020 23:00:00 5,6 3,4 - - 9 5 - - W 1027,7 35 0 0,0
22.11.2020 22:00:00 6,7 4,1 - - 9 5 - - WNW 1027,5 35 0 0,0
22.11.2020 21:00:00 6,7 5,2 - - 9 5 - - W 1027,3 18 0 0,0
22.11.2020 20:00:00 7,4 5,8 - - 9 5 - - W 1027,0 20 0 0,0
22.11.2020 19:00:00 6,5 5,1 - - 13 7 - - WSW 1026,9 15 0 0,0
22.11.2020 18:00:00 7,5 6,1 - - 5 3 - - WNW 1026,6 30 0 0,0
22.11.2020 17:00:00 7,7 5,9 - - 8 4 - - WNW 1026,4 35 0 0,0
22.11.2020 16:00:00 8,4 5,8 - - 5 3 - - W 1026,0 40 36 0,0
22.11.2020 15:00:00 10,1 6,6 - - 5 3 - - W 1025,9 30 30 0,0
22.11.2020 14:00:00 10,3 6,8 - - 9 5 - - NW 1026,4 35 24 0,0
22.11.2020 13:00:00 10,0 6,7 - - 13 7 - - NW 1026,5 30 12 0,0
22.11.2020 12:00:00 9,6 6,6 - - 16 9 - - NW 1026,9 40 0 0,0
22.11.2020 11:00:00 10,0 7,2 - - 11 6 - - WNW 1027,0 45 0 0,0
22.11.2020 10:00:00 10,3 8,9 - - 11 6 - - WNW 1026,8 40 0 0,0
22.11.2020 09:00:00 9,9 9,1 10,2 11,7 11 6 - - W 1026,7 50 0 0,0
22.11.2020 08:00:00 9,5 9,2 - - 8 4 - - WSW 1026,3 35 0 0,2
22.11.2020 07:00:00 9,5 9,0 - - 15 8 - - NW 1025,9 3,1 0 0,0
22.11.2020 06:00:00 10,5 9,8 - - 15 8 - - WSW 1025,5 24 0 0,0
22.11.2020 05:00:00 10,7 9,6 - - 18 10 - - WSW 1025,3 25 0 0,0
22.11.2020 04:00:00 10,9 9,3 - - 21 11 - - WSW 1025,1 17 0 0,0
22.11.2020 03:00:00 11,1 9,1 - - 22 12 - - WSW 1025,1 40 0 0,0
22.11.2020 02:00:00 10,8 8,8 - - 24 13 - - WSW 1024,9 45 0 0,0
22.11.2020 01:00:00 10,6 8,6 - - 21 11 - - SW 1025,0 45 0 0,0
22.11.2020 00:00:00 10,8 8,8 - - 22 12 - - SW 1024,9 50 - 0,0
21.11.2020 23:00:00 10,7 8,6 - - 24 13 - - SW 1025,0 50 0 0,0
21.11.2020 22:00:00 10,2 8,1 - - 21 11 - - SW 1025,4 50 - 0,0
21.11.2020 21:00:00 10,0 7,8 - - 16 9 - - SW 1026,1 40 0 0,0
21.11.2020 20:00:00 10,0 7,8 - - 16 9 - - SW 1026,2 50 0 0,0
21.11.2020 19:00:00 11,0 8,1 - - 21 11 - - SW 1026,5 40 0 0,0
21.11.2020 18:00:00 11,1 7,9 - - 18 10 - - SW 1026,4 45 0 0,0
21.11.2020 17:00:00 11,3 7,6 - - 16 9 - - WSW 1026,4 50 0 0,0
21.11.2020 16:00:00 11,6 7,6 - - 24 13 - - WSW 1026,4 40 0 0,0
21.11.2020 15:00:00 11,9 7,4 - - 26 14 - - WSW 1026,3 30 0 0,0
21.11.2020 14:00:00 12,1 7,5 - - 26 14 - - WSW 1026,1 30 0 0,0
21.11.2020 13:00:00 12,4 7,6 - - 29 16 52 28 WSW 1026,4 40 18 0,0
21.11.2020 12:00:00 12,5 8,2 - - 29 16 48 26 SW 1026,6 35 0 0,0
21.11.2020 11:00:00 11,8 8,2 - - 26 14 46 25 SW 1027,5 40 6 0,0
21.11.2020 10:00:00 11,2 8,5 - - 29 16 - - SW 1027,7 40 12 0,0
21.11.2020 09:00:00 11,2 9,1 9,7 11,7 26 14 - - SW 1027,4 45 6 0,0
21.11.2020 08:00:00 10,4 8,3 - - 22 12 - - SW 1027,9 35 0 0,0
21.11.2020 07:00:00 10,4 8,3 - - 24 13 - - SW 1027,8 35 0 0,0
21.11.2020 06:00:00 10,5 8,4 - - 26 14 - - WSW 1028,0 30 0 0,0
21.11.2020 05:00:00 10,8 7,8 - - 28 15 - - WSW 1028,0 28 0 0,0
21.11.2020 04:00:00 10,7 7,8 - - 28 15 - - SW 1027,8 27 0 0,0
21.11.2020 03:00:00 10,5 8,6 - - 24 13 - - SSW 1027,9 26 0 0,0
21.11.2020 02:00:00 10,7 8,8 - - 26 14 - - SW 1028,7 35 0 0,0
21.11.2020 01:00:00 10,9 9,4 - - 26 14 - - SW 1028,9 45 0 0,0
21.11.2020 00:00:00 10,5 9,4 - - 18 10 - - SSW 1029,3 50 - 0,0
20.11.2020 23:00:00 10,3 9,3 - - 22 12 - - SW 1029,8 50 0 0,0
20.11.2020 22:00:00 10,4 9,4 - - 24 13 - - SW 1030,2 50 0 0,0
20.11.2020 21:00:00 10,2 9,3 - - 22 12 - - SSW 1030,5 45 0 0,0
20.11.2020 20:00:00 9,8 9,1 - - 21 11 - - SSW 1030,8 35 0 0,0
20.11.2020 19:00:00 8,9 8,1 - - 18 10 - - SSW 1031,4 24 0 0,0
20.11.2020 18:00:00 9,0 7,0 - - 22 12 - - SSW 1031,8 45 0 0,0
20.11.2020 17:00:00 8,8 5,6 - - 21 11 - - SSW 1032,3 29 0 0,0
20.11.2020 16:00:00 8,6 5,1 - - 16 9 - - SSW 1032,6 45 0 0,0
20.11.2020 15:00:00 8,9 4,7 - - 16 9 - - SSW 1033,2 45 0 0,0
20.11.2020 14:00:00 8,7 4,0 - - 16 9 - - SSW 1033,5 35 0 0,0
20.11.2020 13:00:00 8,9 3,3 - - 16 9 - - SSW 1034,2 35 24 0,0
20.11.2020 12:00:00 8,3 2,2 - - 16 9 - - SSW 1035,1 40 54 0,0
20.11.2020 11:00:00 7,0 3,3 - - 11 6 - - SSW 1035,7 50 42 0,0
20.11.2020 10:00:00 5,3 1,7 - - 13 7 - - SSW 1035,7 35 60 0,0
20.11.2020 09:00:00 3,8 0,5 9,7 11,7 13 7 - - SW 1035,5 30 60 0,0
20.11.2020 08:00:00 1,6 -0,2 - - 13 7 - - SW 1035,5 30 0 0,0
20.11.2020 07:00:00 1,3 0,2 - - 13 7 - - WSW 1035,1 28 0 0,0
20.11.2020 06:00:00 1,3 0,3 - - 15 8 - - WSW 1035,3 22 0 0,0
20.11.2020 05:00:00 1,3 0,5 - - 13 7 - - SW 1034,9 21 0 0,0
20.11.2020 04:00:00 1,8 1,1 - - 15 8 - - WSW 1035,1 26 0 0,0
20.11.2020 03:00:00 2,1 1,1 - - 15 8 - - WSW 1035,4 30 0 0,0
20.11.2020 02:00:00 2,6 1,3 - - 15 8 - - WSW 1035,3 30 0 0,0
20.11.2020 01:00:00 3,2 0,1 - - 9 5 - - WSW 1035,2 50 0 0,0
20.11.2020 00:00:00 5,1 -1,4 - - 13 7 - - NW 1035,1 50 - 0,0
19.11.2020 23:00:00 5,8 1,7 - - 15 8 - - NW 1035,3 40 0 0,0
19.11.2020 22:00:00 5,8 2,2 - - 11 6 - - NW 1034,7 30 0 0,0
19.11.2020 21:00:00 4,4 2,0 - - 9 5 - - W 1033,6 30 0 0,0
19.11.2020 20:00:00 6,2 2,4 - - 11 6 - - NW 1033,1 50 0 0,0
19.11.2020 19:00:00 7,2 2,5 - - 22 12 - - NW 1033,0 21 0 0,0
19.11.2020 18:00:00 7,6 3,9 - - 22 12 - - NW 1032,5 27 0 0,0
19.11.2020 17:00:00 7,9 4,3 - - 22 12 - - NNW 1031,2 23 0 0,0
19.11.2020 16:00:00 8,2 4,7 - - 22 12 - - NNW 1029,5 21 0 0,0
19.11.2020 15:00:00 9,0 5,3 - - 29 16 - - NNW 1029,0 22 0 0,0
19.11.2020 14:00:00 9,2 6,5 - - 24 13 - - NNW 1027,4 40 0 0,0
19.11.2020 13:00:00 9,7 6,7 - - 22 12 - - NW 1026,1 45 0 0,0
19.11.2020 12:00:00 8,7 7,4 - - 21 11 - - WNW 1025,1 22 0 0,4
19.11.2020 11:00:00 9,4 6,3 - - 21 11 - - W 1024,0 30 0 0,0
19.11.2020 10:00:00 9,1 5,5 - - 26 14 46 25 W 1023,1 35 0 0,0
19.11.2020 09:00:00 9,1 5,0 10,9 11,9 28 15 - - W 1021,8 30 0 0,0
19.11.2020 08:00:00 9,0 4,6 - - 28 15 - - W 1020,4 30 0 0,0
19.11.2020 07:00:00 8,7 4,6 - - 29 16 50 27 W 1019,4 25 0 0,0
19.11.2020 06:00:00 8,9 4,6 - - 39 21 55 30 WSW 1018,7 25 0 0,0
19.11.2020 05:00:00 8,4 4,9 - - 29 16 46 25 WSW 1018,5 26 0 0,0
19.11.2020 04:00:00 7,8 4,3 - - 24 13 46 25 WSW 1017,7 20 0 0,0
19.11.2020 03:00:00 8,0 4,0 - - 29 16 - - SW 1017,8 24 0 0,0
19.11.2020 02:00:00 7,5 3,7 - - 24 13 - - WSW 1018,0 21 0 0,0
19.11.2020 01:00:00 7,8 3,8 - - 28 15 - - SW 1018,1 25 0 0,0
19.11.2020 00:00:00 7,7 4,1 - - 22 12 - - SW 1018,3 21 - 0,0
18.11.2020 23:00:00 8,6 4,4 - - 28 15 - - WSW 1018,1 19 0 0,0
18.11.2020 22:00:00 9,4 4,2 - - 29 16 46 25 W 1017,3 24 0 0,0
18.11.2020 21:00:00 9,8 4,8 - - 35 19 46 25 W 1016,3 35 0 0,0
18.11.2020 20:00:00 10,9 8,3 - - 29 16 52 28 W 1015,2 45 0 0,6
18.11.2020 19:00:00 14,3 13,7 - - 26 14 - - SW 1013,7 21 0 0,2
18.11.2020 18:00:00 14,1 13,2 - - 31 17 48 26 SSW 1013,5 7 0 0,0
18.11.2020 17:00:00 13,6 12,5 - - 22 12 - - SSW 1013,7 16 - 0,0
18.11.2020 16:00:00 13,1 11,2 - - 28 15 50 27 SSW 1013,8 25 0 0,0
18.11.2020 15:00:00 14,2 9,9 - - 34 18 50 27 SSW 1013,6 29 6 0,0
18.11.2020 14:00:00 14,2 9,6 - - 37 20 52 28 SSW 1014,1 40 54 0,0

tt = Température de l'air
td = dewpoint
tt -20cm = Température de l'air -20cm
tt -100cm = Température de l'air -100cm
ff = Vitesse du vent
fx = gusts
dd = Direction du vent
ppp = reduced air pressure
vv = visibility
sd = Ensoleillement
rr = Quantités de précipitations

stations d'obs. à proximité